Regional Weather Roundup
Issued by NWS Huntsville, AL

Home | Current Version | Previous Version | Text Only | Print | Product List | Glossary On
Versions: 1 2 3 4 5 6 7 8 9 10 11 12 13 14 15 16 17 18 19 20 21 22 23 24 25 26 27 28 29 30 31 32 33 34 35 36 37 38 39 40 41 42 43 44 45 46 47 48 49 50
000
ASUS44 KHUN 111010
RWRHUN

WEATHER ROUNDUP FOR THE TENNESSEE VALLEY
NATIONAL WEATHER SERVICE HUNTSVILLE AL
400 AM CST THU FEB 11 2016

ALZ001>004-111100-
NORTHWEST ALABAMA

CITY           SKY/WX    TMP DP  RH WIND       PRES   REMARKS
RUSSELLVILLE     N/A     23 N/A N/A MISG        N/A
SHOALS AIRPORT CLEAR     26  18  71 E5        30.13F WCI  20
SHOALS TVA RES   N/A     25 N/A N/A MISG        N/A
$$

ALZ005>007-016-111100-
NORTH CENTRAL ALABAMA

CITY           SKY/WX    TMP DP  RH WIND       PRES   REMARKS
CULLMAN AG STN   N/A     21 N/A N/A E3          N/A
DECATUR AP     CLEAR     25  19  78 E3        30.14F
HUNTSVILLE AP  CLEAR     25  16  68 E6        30.13F WCI  18
HUN NWS/UAH      N/A     25  16  68 E1          N/A
MERIDIANVILLE  CLEAR     27  18  69 E3        30.14S
REDSTONE ARSN  CLEAR     23  18  83 CALM      30.13S
VINEMONT AP    FAIR      27  12  54 E5        30.12F WCI  21
$$

ALZ008>010-111100-
NORTHEAST ALABAMA

CITY           SKY/WX    TMP DP  RH WIND       PRES   REMARKS
ALBERTVILLE    CLEAR     27  19  74 E5        30.12S WCI  21
FORT PAYNE     CLEAR     27  18  69 CALM      30.15R
SCOTTSBORO AP  MOCLDY    25  19  80 CALM      30.17R
SCOTTSBORO HCN   N/A     25 N/A N/A MISG        N/A
VALLEY HEAD      N/A     23 N/A N/A MISG        N/A
$$

TNZ076-096-097-111100-
SOUTHEASTERN MIDDLE TENNESSEE

CITY           SKY/WX    TMP DP  RH WIND       PRES   REMARKS
TULLAHOMA      CLEAR     21  21 100 CALM      30.13R
WINCHESTER     CLEAR     21  19  93 CALM      30.14R
$$

...SURROUNDING SITES...

CITY           SKY/WX    TMP DP  RH WIND       PRES   REMARKS
ATLANTA        PTCLDY    29  13  51 CALM      30.14S
ANNISTON       CLEAR     27  17  66 NE3       30.16F
BIRMINGHAM     CLEAR     31  15  52 CALM      30.14F
CHATTANOOGA    CLOUDY    29  17  61 CALM      30.17R
DALTON         NOT AVBL
GADSDEN        CLEAR     22  19  89 CALM      30.16F
GOLDEN TRNGL   CLEAR     32  21  64 S6        30.09S WCI  26
HALEYVILLE     FAIR      27  13  55 SE3       30.11F
JACKSON TN     CLEAR     24  14  65 E7        30.10F WCI  16
MEMPHIS        CLEAR     34  15  46 SE6       30.04F WCI  29
NASHVILLE      CLOUDY    27  21  78 E6        30.16S WCI  20
OXFORD MS      FAIR      32  16  51 SE3       30.07S
ROME             N/A    N/A N/A N/A MISG      30.17R
SAVANNAH       CLOUDY    27  18  69 CALM      30.11S
TUPELO         CLEAR     25  18  74 NE3       30.09F
TUSCALOOSA     CLEAR     28  23  81 CALM      30.15S
$$

...GULF COAST WEATHER...

CITY           SKY/WX    TMP DP  RH WIND       PRES   REMARKS
GULFPORT       CLEAR     42  35  76 CALM      30.20F
PASCAGOULA     CLEAR     47  38  71 SW5       30.21S
MOBILE         CLEAR     43  36  76 SW6       30.20S
GULF SHORES    SUNNY     46  43  89 W6        30.22S
PENSACOLA      CLEAR     40  37  89 NW3       30.22R
DESTIN         CLEAR     45  40  82 CALM      30.23R
PANAMA CITY    CLEAR     41  38  90 CALM      30.25R
APPALACHICOLA  CLEAR     36  34  92 CALM      30.25R
$$




USA.gov is the U.S. government's official web portal to all federal, state and local government web resources and services.